Regional Weather Roundup
Issued by NWS

Home | Current Version | Previous Version | Graphics & Text | Print | Product List | Glossary On
Versions: 1 2 3 4 5 6 7 8 9 10 11 12 13 14 15 16 17 18 19 20 21 22 23 24 25 26 27 28 29 30 31 32 33 34 35 36 37 38 39 40 41 42 43 44 45 46 47 48 49 50
000
ASUS43 KOAX 241702
RWRNE

WEATHER ROUNDUP FOR NEBRASKA
NATIONAL WEATHER SERVICE OMAHA NE
1200 PM CDT TUE APR 24 2018

NOTES: SATELLITE DATA IS BEING USED TO AUGMENT CLOUD COVER ABOVE
       12000 FEET.
       "FAIR" INDICATES FEW OR NO CLOUDS BELOW 12,000 FEET WITH NO
       SIGNIFICANT WEATHER AND/OR OBSTRUCTIONS TO VISIBILITY.


NEZ001>004-019>022-054>056-241800-
NEBRASKA PANHANDLE

CITY           SKY/WX    TMP DP  RH WIND       PRES   REMARKS
SCOTTSBLUFF    CLOUDY    40  33  76 N13       30.45S WCI  32
ALLIANCE       CLOUDY    35  31  85 N29       30.42R WCI  22
CHADRON        CLOUDY    38  30  73 N14       30.48R WCI  30
GORDON         CLOUDY    36  32  87 N26G33    30.42R WCI  23
KIMBALL        CLOUDY    35  32  88 N18       30.42S WCI  24
SIDNEY         CLOUDY    36  32  85 N26G35    30.41R WCI  24
$$

NEZ057>060-069>072-079>082-241800-
SOUTHWEST NEBRASKA

CITY           SKY/WX    TMP DP  RH WIND       PRES   REMARKS
NORTH PLATTE   LGT RAIN  40  37  89 N20G28    30.34R WCI  30
IMPERIAL       LGT RAIN  40  38  93 NW21G31   30.36S WCI  30
LEXINGTON      LGT RAIN  43  39  86 NW14      30.31R
MCCOOK         LGT RAIN  41  39  93 N20G28    30.33R FOG
OGALLALA       CLOUDY    41  36  81 N30       30.37S
$$

NEZ005>010-023>029-035>040-094-241800-
NORTH CENTRAL NEBRASKA

CITY           SKY/WX    TMP DP  RH WIND       PRES   REMARKS
VALENTINE      CLOUDY    39  36  89 N22G31    30.35R FOG     WCI  29
AINSWORTH      CLOUDY    38  38  98 NW23G33   30.30R FOG     WCI  27
BROKEN BOW     LGT RAIN  42  38  85 NW23G36   30.26R
O`NEILL        CLOUDY    47  46  93 W14       30.23S
ORD            LGT RAIN  44  41  89 NW18      30.24S FOG
THEDFORD       CLOUDY    39  36  87 N24G31    30.33S WCI  28
$$

NEZ041-046>049-061>064-073>077-083>087-241800-
SOUTH CENTRAL NEBRASKA

CITY           SKY/WX    TMP DP  RH WIND       PRES   REMARKS
GRAND ISLAND   CLOUDY    47  41  80 NW21G29   30.26R
AURORA         CLOUDY    53  42  66 NW21      30.23R
HASTINGS       LGT RAIN  47  43  86 NW20      30.26R
HEBRON         CLOUDY    67  45  45 NW16      30.17S
HOLDREGE       RAIN      42  42  97 NW16G22   30.29S
KEARNEY        LGT RAIN  43  41  93 NW15      30.30R
YORK             N/A     59  45  58 NW17G23   30.19R
$$

NEZ011>018-030>034-042>045-241800-
NORTHEAST NEBRASKA

CITY           SKY/WX    TMP DP  RH WIND       PRES   REMARKS
NORFOLK        CLOUDY    51  44  77 NW17      30.18S
ALBION         DRIZZLE   48  45  88 NW17      30.21R
BLAIR          MOSUNNY   70  35  28 NW9       30.15R
COLUMBUS       MOSUNNY   57  44  62 N15G23    30.20R
FREMONT        PTSUNNY   70  39  32 W8        30.16S
TEKAMAH        MOSUNNY   70  35  27 NW8       30.14S
WAYNE          CLOUDY    54  45  71 NW20G25   30.19R
$$

NEZ050>053-065>068-078-088>093-241800-
SOUTHEAST NEBRASKA

CITY           SKY/WX    TMP DP  RH WIND       PRES   REMARKS
LINCOLN        MOSUNNY   71  31  22 W9G20     30.16S
OMAHA EPPLEY   PTSUNNY   70  38  31 S5        30.13F
BEATRICE       PTSUNNY   73  36  26 SW10      30.14F
FALLS CITY     CLOUDY    69  28  21 VRB3      30.13F
NEBRASKA CITY  CLOUDY    69  34  27 CALM      30.14S
PLATTSMOUTH    CLOUDY    71  31  23 CALM      30.14S
$$

NEZ044-045-051>053-067-241800-
OMAHA AREA

CITY           SKY/WX    TMP DP  RH WIND       PRES   REMARKS
OMAHA EPPLEY   PTSUNNY   70  38  31 S5        30.13F
BLAIR          MOSUNNY   70  35  28 NW9       30.15R
FREMONT        PTSUNNY   70  39  32 W8        30.16S
MILLARD        PTSUNNY   71  37  29 W6        30.14S
OFFUTT AFB     CLOUDY    70  36  28 SW3       30.13S
PLATTSMOUTH    CLOUDY    71  31  23 CALM      30.14S
WAHOO          PTSUNNY   70  31  23 NW12      30.15S
$$




USA.gov is the U.S. government's official web portal to all federal, state and local government web resources and services.